owner,sensor,date,latitude,longitude,vertical_datum,wind_speed,wind_to_direction,wind_speed_of_gust,qcFlag 
TCOON,ioos:station:TCOON:518:1,2013-09-25T14:18:00Z,29.5150,-94.5133,0.0,1.7,316.0,2.7,'11111222,11111222,11111222' 
TCOON,ioos:station:TCOON:518:1,2013-09-25T14:24:00Z,29.5150,-94.5133,0.0,2.3,311.0,2.7,'11111222,11111222,11111222' 
TCOON,ioos:station:TCOON:518:1,2013-09-25T14:30:00Z,29.5150,-94.5133,0.0,2.6,315.0,3.1,'11111222,11111222,11111222' 
TCOON,ioos:station:TCOON:518:1,2013-09-25T14:36:00Z,29.5150,-94.5133,0.0,2.6,320.0,2.9,'11111222,11111222,11111222' 
TCOON,ioos:station:TCOON:518:1,2013-09-25T14:42:00Z,29.5150,-94.5133,0.0,2.8,316.0,3.1,'11111222,11111222,11111222' 
TCOON,ioos:station:TCOON:518:1,2013-09-25T14:48:00Z,29.5150,-94.5133,0.0,2.2,299.0,3.3,'11111222,11111222,11111222' 
TCOON,ioos:station:TCOON:518:1,2013-09-25T14:54:00Z,29.5150,-94.5133,0.0,2.1,300.0,2.6,'1111122,1111122,1111122' 
TCOON,ioos:station:TCOON:518:1,2013-09-25T15:00:00Z,29.5150,-94.5133,0.0,2.9,328.0,3.2,'11111222,11111222,11111222' 
TCOON,ioos:station:TCOON:518:1,2013-09-25T15:06:00Z,29.5150,-94.5133,0.0,2.5,317.0,3.6,'11111222,11111222,11111222' 
TCOON,ioos:station:TCOON:518:1,2013-09-25T15:12:00Z,29.5150,-94.5133,0.0,3.3,324.0,3.5,'11111222,11111222,11111222' 
TCOON,ioos:station:TCOON:518:1,2013-09-25T15:18:00Z,29.5150,-94.5133,0.0,3.3,332.0,3.9,'11111222,11111222,11111222' 
TCOON,ioos:station:TCOON:518:1,2013-09-25T15:24:00Z,29.5150,-94.5133,0.0,3.2,326.0,3.6,'11111222,11111222,11111222' 
TCOON,ioos:station:TCOON:518:1,2013-09-25T15:30:00Z,29.5150,-94.5133,0.0,2.6,320.0,3.1,'1111122,1111122,1111122' 
TCOON,ioos:station:TCOON:518:1,2013-09-25T15:36:00Z,29.5150,-94.5133,0.0,2.1,304.0,2.6,'11111222,11111222,11111222' 
TCOON,ioos:station:TCOON:518:1,2013-09-25T15:42:00Z,29.5150,-94.5133,0.0,2.1,310.0,2.6,'11111222,11111222,11111222' 
TCOON,ioos:station:TCOON:518:1,2013-09-25T15:48:00Z,29.5150,-94.5133,0.0,2.1,310.0,3.1,'1111122,1111122,1111122' 
TCOON,ioos:station:TCOON:518:1,2013-09-25T15:54:00Z,29.5150,-94.5133,0.0,2.1,307.0,2.5,'11111222,11111222,11111222' 
TCOON,ioos:station:TCOON:518:1,2013-09-25T16:00:00Z,29.5150,-94.5133,0.0,2.1,301.0,2.6,'11111222,11111222,11111222' 
TCOON,ioos:station:TCOON:518:1,2013-09-25T16:06:00Z,29.5150,-94.5133,0.0,2.1,304.0,2.8,'11111222,11111222,11111222' 
TCOON,ioos:station:TCOON:518:1,2013-09-25T16:12:00Z,29.5150,-94.5133,0.0,1.8,290.0,2.8,'11111222,11111222,11111222' 
TCOON,ioos:station:TCOON:518:1,2013-09-25T16:18:00Z,29.5150,-94.5133,0.0,1.8,307.0,2.4,'11111222,11111222,11111222' 
TCOON,ioos:station:TCOON:518:1,2013-09-25T16:24:00Z,29.5150,-94.5133,0.0,1.6,284.0,2.2,'11111222,11111222,11111222' 
TCOON,ioos:station:TCOON:518:1,2013-09-25T16:30:00Z,29.5150,-94.5133,0.0,2.1,280.0,2.6,'1111122,1111122,1111122' 
TCOON,ioos:station:TCOON:518:1,2013-09-25T16:36:00Z,29.5150,-94.5133,0.0,2.6,291.0,3.0,'11111222,11111222,11111222' 
TCOON,ioos:station:TCOON:518:1,2013-09-25T16:42:00Z,29.5150,-94.5133,0.0,2.2,275.0,3.2,'11111222,11111222,11111222' 
TCOON,ioos:station:TCOON:518:1,2013-09-25T16:48:00Z,29.5150,-94.5133,0.0,2.6,290.0,3.1,'1111122,1111122,1111122' 
TCOON,ioos:station:TCOON:518:1,2013-09-25T16:54:00Z,29.5150,-94.5133,0.0,2.8,285.0,3.7,'11111222,11111222,11111222' 
TCOON,ioos:station:TCOON:518:1,2013-09-25T17:00:00Z,29.5150,-94.5133,0.0,2.6,278.0,3.1,'11111222,11111222,11111222' 
TCOON,ioos:station:TCOON:518:1,2013-09-25T17:06:00Z,29.5150,-94.5133,0.0,3.0,283.0,3.5,'11111222,11111222,11111222' 
TCOON,ioos:station:TCOON:518:1,2013-09-25T17:12:00Z,29.5150,-94.5133,0.0,2.6,292.0,3.7,'11111222,11111222,11111222' 
TCOON,ioos:station:TCOON:518:1,2013-09-25T17:18:00Z,29.5150,-94.5133,0.0,2.9,284.0,3.5,'11111222,11111222,11111222' 
TCOON,ioos:station:TCOON:518:1,2013-09-25T17:24:00Z,29.5150,-94.5133,0.0,2.4,286.0,3.2,'11111222,11111222,11111222' 
TCOON,ioos:station:TCOON:518:1,2013-09-25T17:30:00Z,29.5150,-94.5133,0.0,2.6,287.0,3.4,'11111222,11111222,11111222' 
TCOON,ioos:station:TCOON:518:1,2013-09-25T17:36:00Z,29.5150,-94.5133,0.0,2.1,280.0,3.1,'1111122,1111122,1111122' 
TCOON,ioos:station:TCOON:518:1,2013-09-25T17:42:00Z,29.5150,-94.5133,0.0,2.1,292.0,2.9,'11111222,11111222,11111222' 
TCOON,ioos:station:TCOON:518:1,2013-09-25T17:48:00Z,29.5150,-94.5133,0.0,1.6,288.0,2.7,'11111222,11111222,11111222' 
TCOON,ioos:station:TCOON:518:1,2013-09-25T17:54:00Z,29.5150,-94.5133,0.0,1.7,275.0,2.5,'11111222,11111222,11111222' 
TCOON,ioos:station:TCOON:518:1,2013-09-25T18:00:00Z,29.5150,-94.5133,0.0,1.6,293.0,2.3,'11111222,11111222,11111222' 
TCOON,ioos:station:TCOON:518:1,2013-09-25T18:06:00Z,29.5150,-94.5133,0.0,2.2,293.0,2.9,'11111222,11111222,11111222' 
TCOON,ioos:station:TCOON:518:1,2013-09-25T18:12:00Z,29.5150,-94.5133,0.0,2.1,290.0,2.8,'11111222,11111222,11111222' 
TCOON,ioos:station:TCOON:518:1,2013-09-25T18:18:00Z,29.5150,-94.5133,0.0,2.1,288.0,2.8,'11111222,11111222,11111222' 
TCOON,ioos:station:TCOON:518:1,2013-09-25T18:24:00Z,29.5150,-94.5133,0.0,2.2,293.0,2.8,'11111222,11111222,11111222' 
TCOON,ioos:station:TCOON:518:1,2013-09-25T18:30:00Z,29.5150,-94.5133,0.0,1.8,286.0,2.9,'11111222,11111222,11111222' 
TCOON,ioos:station:TCOON:518:1,2013-09-25T18:36:00Z,29.5150,-94.5133,0.0,2.1,280.0,3.1,'1111122,1111122,1111122' 
TCOON,ioos:station:TCOON:518:1,2013-09-25T18:42:00Z,29.5150,-94.5133,0.0,1.9,262.0,2.4,'11111222,11111222,11111222' 
TCOON,ioos:station:TCOON:518:1,2013-09-25T18:48:00Z,29.5150,-94.5133,0.0,2.1,290.0,2.5,'11111222,11111222,11111222' 
TCOON,ioos:station:TCOON:518:1,2013-09-25T18:54:00Z,29.5150,-94.5133,0.0,2.1,295.0,3.0,'11111222,11111222,11111222' 
TCOON,ioos:station:TCOON:518:1,2013-09-25T19:00:00Z,29.5150,-94.5133,0.0,3.1,290.0,3.6,'1111122,1111122,1111122' 
TCOON,ioos:station:TCOON:518:1,2013-09-25T19:06:00Z,29.5150,-94.5133,0.0,2.4,285.0,3.6,'11111222,11111222,11111222' 
TCOON,ioos:station:TCOON:518:1,2013-09-25T19:12:00Z,29.5150,-94.5133,0.0,2.7,285.0,3.3,'11111222,11111222,11111222' 
TCOON,ioos:station:TCOON:518:1,2013-09-25T19:18:00Z,29.5150,-94.5133,0.0,2.6,300.0,3.5,'11111222,11111222,11111222' 
TCOON,ioos:station:TCOON:518:1,2013-09-25T19:24:00Z,29.5150,-94.5133,0.0,2.4,261.0,3.8,'11111222,11111222,11111222' 
TCOON,ioos:station:TCOON:518:1,2013-09-25T19:30:00Z,29.5150,-94.5133,0.0,2.1,284.0,3.3,'11111222,11111222,11111222' 
TCOON,ioos:station:TCOON:518:1,2013-09-25T19:36:00Z,29.5150,-94.5133,0.0,2.6,282.0,3.8,'11111222,11111222,11111222' 
TCOON,ioos:station:TCOON:518:1,2013-09-25T19:42:00Z,29.5150,-94.5133,0.0,1.8,274.0,3.2,'11111222,11111222,11111222' 
TCOON,ioos:station:TCOON:518:1,2013-09-25T19:48:00Z,29.5150,-94.5133,0.0,1.7,259.0,3.2,'11111222,11111222,11111222' 
TCOON,ioos:station:TCOON:518:1,2013-09-25T19:54:00Z,29.5150,-94.5133,0.0,2.5,281.0,3.9,'11111222,11111222,11111222' 
TCOON,ioos:station:TCOON:518:1,2013-09-25T20:00:00Z,29.5150,-94.5133,0.0,2.6,270.0,3.1,'1111122,1111122,1111122' 
TCOON,ioos:station:TCOON:518:1,2013-09-25T20:06:00Z,29.5150,-94.5133,0.0,2.2,274.0,4.3,'11111222,11111222,11111222' 
TCOON,ioos:station:TCOON:518:1,2013-09-25T20:12:00Z,29.5150,-94.5133,0.0,2.5,226.0,4.6,'11111222,11111222,11111222' 
TCOON,ioos:station:TCOON:518:1,2013-09-25T20:18:00Z,29.5150,-94.5133,0.0,3.9,262.0,4.8,'11111222,11111222,11111222' 
TCOON,ioos:station:TCOON:518:1,2013-09-25T20:24:00Z,29.5150,-94.5133,0.0,2.6,230.0,4.6,'1111122,1111122,1111122' 
TCOON,ioos:station:TCOON:518:1,2013-09-25T20:30:00Z,29.5150,-94.5133,0.0,2.2,244.0,4.1,'11111222,11111222,11111222' 
TCOON,ioos:station:TCOON:518:1,2013-09-25T20:36:00Z,29.5150,-94.5133,0.0,2.0,256.0,5.6,'11111222,11111222,11111222' 
TCOON,ioos:station:TCOON:518:1,2013-09-25T20:42:00Z,29.5150,-94.5133,0.0,2.8,249.0,5.1,'11111222,11111222,11111222' 
TCOON,ioos:station:TCOON:518:1,2013-09-25T20:48:00Z,29.5150,-94.5133,0.0,3.1,240.0,5.1,'1111122,1111122,1111122' 
TCOON,ioos:station:TCOON:518:1,2013-09-25T20:54:00Z,29.5150,-94.5133,0.0,3.4,232.0,5.3,'11111222,11111222,11111222' 
TCOON,ioos:station:TCOON:518:1,2013-09-25T21:00:00Z,29.5150,-94.5133,0.0,3.3,235.0,5.3,'11111222,11111222,11111222' 
TCOON,ioos:station:TCOON:518:1,2013-09-25T21:06:00Z,29.5150,-94.5133,0.0,2.4,211.0,4.9,'11111222,11111222,11111222' 
TCOON,ioos:station:TCOON:518:1,2013-09-25T21:12:00Z,29.5150,-94.5133,0.0,2.6,217.0,4.2,'11111222,11111222,11111222' 
TCOON,ioos:station:TCOON:518:1,2013-09-25T21:18:00Z,29.5150,-94.5133,0.0,2.8,222.0,4.5,'11111222,11111222,11111222' 
TCOON,ioos:station:TCOON:518:1,2013-09-25T21:24:00Z,29.5150,-94.5133,0.0,2.4,214.0,3.3,'11111222,11111222,11111222' 
TCOON,ioos:station:TCOON:518:1,2013-09-25T21:30:00Z,29.5150,-94.5133,0.0,2.7,194.0,3.6,'11111222,11111222,11111222' 
TCOON,ioos:station:TCOON:518:1,2013-09-25T21:36:00Z,29.5150,-94.5133,0.0,1.5,210.0,4.6,'1111122,1111122,1111122' 
TCOON,ioos:station:TCOON:518:1,2013-09-25T21:42:00Z,29.5150,-94.5133,0.0,4.0,191.0,5.1,'11111222,11111222,11111222' 
TCOON,ioos:station:TCOON:518:1,2013-09-25T21:48:00Z,29.5150,-94.5133,0.0,3.6,180.0,5.7,'1111122,1111122,1111122' 
TCOON,ioos:station:TCOON:518:1,2013-09-25T21:54:00Z,29.5150,-94.5133,0.0,2.8,179.0,5.0,'11111222,11111222,11111222' 
TCOON,ioos:station:TCOON:518:1,2013-09-25T22:00:00Z,29.5150,-94.5133,0.0,3.5,181.0,5.1,'11111222,11111222,11111222' 
TCOON,ioos:station:TCOON:518:1,2013-09-25T22:06:00Z,29.5150,-94.5133,0.0,2.5,181.0,5.1,'11111222,11111222,11111222' 
TCOON,ioos:station:TCOON:518:1,2013-09-25T22:12:00Z,29.5150,-94.5133,0.0,3.2,183.0,5.2,'11111222,11111222,11111222' 
TCOON,ioos:station:TCOON:518:1,2013-09-25T22:18:00Z,29.5150,-94.5133,0.0,2.8,176.0,4.2,'11111222,11111222,11111222' 
TCOON,ioos:station:TCOON:518:1,2013-09-25T22:24:00Z,29.5150,-94.5133,0.0,2.6,180.0,4.6,'1111122,1111122,1111122' 
TCOON,ioos:station:TCOON:518:1,2013-09-25T22:30:00Z,29.5150,-94.5133,0.0,2.3,186.0,4.1,'11111222,11111222,11111222' 
TCOON,ioos:station:TCOON:518:1,2013-09-25T22:36:00Z,29.5150,-94.5133,0.0,2.8,177.0,4.1,'11111222,11111222,11111222' 
TCOON,ioos:station:TCOON:518:1,2013-09-25T22:42:00Z,29.5150,-94.5133,0.0,2.3,186.0,4.0,'11111222,11111222,11111222' 
TCOON,ioos:station:TCOON:518:1,2013-09-25T22:48:00Z,29.5150,-94.5133,0.0,3.5,172.0,4.5,'11111222,11111222,11111222' 
TCOON,ioos:station:TCOON:518:1,2013-09-25T22:54:00Z,29.5150,-94.5133,0.0,4.1,160.0,4.6,'1111122,1111122,1111122' 
TCOON,ioos:station:TCOON:518:1,2013-09-25T23:00:00Z,29.5150,-94.5133,0.0,3.4,169.0,4.8,'11111222,11111222,11111222' 
TCOON,ioos:station:TCOON:518:1,2013-09-25T23:06:00Z,29.5150,-94.5133,0.0,2.9,176.0,4.4,'11111222,11111222,11111222' 
TCOON,ioos:station:TCOON:518:1,2013-09-25T23:12:00Z,29.5150,-94.5133,0.0,2.9,172.0,4.1,'11111222,11111222,11111222' 
TCOON,ioos:station:TCOON:518:1,2013-09-25T23:18:00Z,29.5150,-94.5133,0.0,2.3,175.0,4.4,'11111222,11111222,11111222' 
TCOON,ioos:station:TCOON:518:1,2013-09-25T23:24:00Z,29.5150,-94.5133,0.0,2.6,170.0,4.1,'1111122,1111122,1111122' 
TCOON,ioos:station:TCOON:518:1,2013-09-25T23:30:00Z,29.5150,-94.5133,0.0,2.2,189.0,3.6,'11111222,11111222,11111222' 
TCOON,ioos:station:TCOON:518:1,2013-09-25T23:36:00Z,29.5150,-94.5133,0.0,3.0,182.0,4.3,'11111222,11111222,11111222' 
TCOON,ioos:station:TCOON:518:1,2013-09-25T23:42:00Z,29.5150,-94.5133,0.0,2.6,186.0,4.0,'11111222,11111222,11111222' 
TCOON,ioos:station:TCOON:518:1,2013-09-25T23:48:00Z,29.5150,-94.5133,0.0,2.2,184.0,3.5,'11111222,11111222,11111222' 
TCOON,ioos:station:TCOON:518:1,2013-09-25T23:54:00Z,29.5150,-94.5133,0.0,2.3,189.0,3.3,'11111222,11111222,11111222' 
TCOON,ioos:station:TCOON:518:1,2013-09-26T00:00:00Z,29.5150,-94.5133,0.0,2.2,187.0,3.8,'11111222,11111222,11111222' 
TCOON,ioos:station:TCOON:518:1,2013-09-26T00:06:00Z,29.5150,-94.5133,0.0,2.0,194.0,3.0,'11111222,11111222,11111222' 
TCOON,ioos:station:TCOON:518:1,2013-09-26T00:12:00Z,29.5150,-94.5133,0.0,2.5,196.0,3.4,'11111222,11111222,11111222' 
TCOON,ioos:station:TCOON:518:1,2013-09-26T00:18:00Z,29.5150,-94.5133,0.0,2.1,200.0,3.6,'11111222,11111222,11111222' 
TCOON,ioos:station:TCOON:518:1,2013-09-26T00:24:00Z,29.5150,-94.5133,0.0,2.6,200.0,3.6,'1111122,1111122,1111122' 
TCOON,ioos:station:TCOON:518:1,2013-09-26T00:30:00Z,29.5150,-94.5133,0.0,2.3,196.0,3.2,'11111222,11111222,11111222' 
TCOON,ioos:station:TCOON:518:1,2013-09-26T00:36:00Z,29.5150,-94.5133,0.0,2.6,196.0,3.4,'11111222,11111222,11111222' 
TCOON,ioos:station:TCOON:518:1,2013-09-26T00:42:00Z,29.5150,-94.5133,0.0,2.5,199.0,3.9,'11111222,11111222,11111222' 
TCOON,ioos:station:TCOON:518:1,2013-09-26T00:48:00Z,29.5150,-94.5133,0.0,2.2,199.0,3.6,'11111222,11111222,11111222' 
TCOON,ioos:station:TCOON:518:1,2013-09-26T00:54:00Z,29.5150,-94.5133,0.0,1.5,210.0,2.6,'1111122,1111122,1111122' 
TCOON,ioos:station:TCOON:518:1,2013-09-26T01:00:00Z,29.5150,-94.5133,0.0,2.9,197.0,3.8,'11111222,11111222,11111222' 
TCOON,ioos:station:TCOON:518:1,2013-09-26T01:06:00Z,29.5150,-94.5133,0.0,2.3,198.0,3.6,'11111222,11111222,11111222' 
TCOON,ioos:station:TCOON:518:1,2013-09-26T01:12:00Z,29.5150,-94.5133,0.0,1.8,203.0,2.8,'11111222,11111222,11111222' 
TCOON,ioos:station:TCOON:518:1,2013-09-26T01:18:00Z,29.5150,-94.5133,0.0,2.0,199.0,2.9,'11111222,11111222,11111222' 
TCOON,ioos:station:TCOON:518:1,2013-09-26T01:24:00Z,29.5150,-94.5133,0.0,2.4,197.0,3.2,'11111222,11111222,11111222' 
TCOON,ioos:station:TCOON:518:1,2013-09-26T01:30:00Z,29.5150,-94.5133,0.0,2.2,199.0,3.2,'11111222,11111222,11111222' 
TCOON,ioos:station:TCOON:518:1,2013-09-26T01:36:00Z,29.5150,-94.5133,0.0,2.1,220.0,2.6,'1111122,1111122,1111122' 
TCOON,ioos:station:TCOON:518:1,2013-09-26T01:42:00Z,29.5150,-94.5133,0.0,2.0,228.0,2.6,'11111222,11111222,11111222' 
TCOON,ioos:station:TCOON:518:1,2013-09-26T01:48:00Z,29.5150,-94.5133,0.0,2.2,194.0,3.2,'11111222,11111222,11111222' 
TCOON,ioos:station:TCOON:518:1,2013-09-26T01:54:00Z,29.5150,-94.5133,0.0,2.0,190.0,2.8,'11111222,11111222,11111222' 
TCOON,ioos:station:TCOON:518:1,2013-09-26T02:00:00Z,29.5150,-94.5133,0.0,1.8,228.0,2.6,'11111222,11111222,11111222' 
TCOON,ioos:station:TCOON:518:1,2013-09-26T02:06:00Z,29.5150,-94.5133,0.0,1.5,211.0,2.3,'11111222,11111222,11111222' 
TCOON,ioos:station:TCOON:518:1,2013-09-26T02:12:00Z,29.5150,-94.5133,0.0,1.8,204.0,2.6,'11111222,11111222,11111222' 
TCOON,ioos:station:TCOON:518:1,2013-09-26T02:18:00Z,29.5150,-94.5133,0.0,1.7,222.0,2.4,'11111222,11111222,11111222' 
TCOON,ioos:station:TCOON:518:1,2013-09-26T02:24:00Z,29.5150,-94.5133,0.0,1.5,204.0,2.4,'11111222,11111222,11111222' 
TCOON,ioos:station:TCOON:518:1,2013-09-26T02:30:00Z,29.5150,-94.5133,0.0,1.5,210.0,2.1,'1111122,1111122,1111122' 
TCOON,ioos:station:TCOON:518:1,2013-09-26T02:36:00Z,29.5150,-94.5133,0.0,1.7,214.0,2.4,'11111222,11111222,11111222' 
TCOON,ioos:station:TCOON:518:1,2013-09-26T02:42:00Z,29.5150,-94.5133,0.0,1.6,202.0,2.5,'11111222,11111222,11111222' 
TCOON,ioos:station:TCOON:518:1,2013-09-26T02:48:00Z,29.5150,-94.5133,0.0,1.5,210.0,3.1,'1111122,1111122,1111122' 
TCOON,ioos:station:TCOON:518:1,2013-09-26T02:54:00Z,29.5150,-94.5133,0.0,1.6,207.0,3.4,'11111222,11111222,11111222' 
TCOON,ioos:station:TCOON:518:1,2013-09-26T03:00:00Z,29.5150,-94.5133,0.0,1.5,205.0,2.7,'11111222,11111222,11111222' 
TCOON,ioos:station:TCOON:518:1,2013-09-26T03:06:00Z,29.5150,-94.5133,0.0,2.0,196.0,3.0,'11111222,11111222,11111222' 
TCOON,ioos:station:TCOON:518:1,2013-09-26T03:12:00Z,29.5150,-94.5133,0.0,1.7,204.0,3.4,'11111222,11111222,11111222' 
TCOON,ioos:station:TCOON:518:1,2013-09-26T03:18:00Z,29.5150,-94.5133,0.0,1.8,199.0,2.6,'11111222,11111222,11111222' 
TCOON,ioos:station:TCOON:518:1,2013-09-26T03:24:00Z,29.5150,-94.5133,0.0,1.5,210.0,2.6,'1111122,1111122,1111122' 
TCOON,ioos:station:TCOON:518:1,2013-09-26T03:30:00Z,29.5150,-94.5133,0.0,1.8,198.0,2.8,'11111222,11111222,11111222' 
TCOON,ioos:station:TCOON:518:1,2013-09-26T03:36:00Z,29.5150,-94.5133,0.0,1.5,209.0,2.8,'11111222,11111222,11111222' 
TCOON,ioos:station:TCOON:518:1,2013-09-26T03:42:00Z,29.5150,-94.5133,0.0,2.1,215.0,2.7,'11111222,11111222,11111222' 
TCOON,ioos:station:TCOON:518:1,2013-09-26T03:48:00Z,29.5150,-94.5133,0.0,1.6,209.0,2.7,'11111222,11111222,11111222' 
TCOON,ioos:station:TCOON:518:1,2013-09-26T03:54:00Z,29.5150,-94.5133,0.0,1.7,207.0,3.0,'11111222,11111222,11111222' 
TCOON,ioos:station:TCOON:518:1,2013-09-26T04:00:00Z,29.5150,-94.5133,0.0,1.4,210.0,2.9,'11111222,11111222,11111222' 
TCOON,ioos:station:TCOON:518:1,2013-09-26T04:06:00Z,29.5150,-94.5133,0.0,1.6,203.0,2.5,'11111222,11111222,11111222' 
TCOON,ioos:station:TCOON:518:1,2013-09-26T04:12:00Z,29.5150,-94.5133,0.0,1.5,205.0,2.4,'11111222,11111222,11111222' 
TCOON,ioos:station:TCOON:518:1,2013-09-26T04:18:00Z,29.5150,-94.5133,0.0,1.4,207.0,2.8,'11111222,11111222,11111222' 
TCOON,ioos:station:TCOON:518:1,2013-09-26T04:24:00Z,29.5150,-94.5133,0.0,1.5,200.0,2.6,'1111122,1111122,1111122' 
TCOON,ioos:station:TCOON:518:1,2013-09-26T04:30:00Z,29.5150,-94.5133,0.0,1.5,201.0,2.4,'11111222,11111222,11111222' 
TCOON,ioos:station:TCOON:518:1,2013-09-26T04:36:00Z,29.5150,-94.5133,0.0,1.5,199.0,2.4,'11111222,11111222,11111222' 
TCOON,ioos:station:TCOON:518:1,2013-09-26T04:42:00Z,29.5150,-94.5133,0.0,1.4,203.0,2.2,'11111222,11111222,11111222' 
TCOON,ioos:station:TCOON:518:1,2013-09-26T04:48:00Z,29.5150,-94.5133,0.0,2.1,200.0,3.1,'1111122,1111122,1111122' 
TCOON,ioos:station:TCOON:518:1,2013-09-26T04:54:00Z,29.5150,-94.5133,0.0,2.0,200.0,3.1,'11111222,11111222,11111222' 
TCOON,ioos:station:TCOON:518:1,2013-09-26T05:00:00Z,29.5150,-94.5133,0.0,1.3,203.0,3.0,'11111222,11111222,11111222' 
TCOON,ioos:station:TCOON:518:1,2013-09-26T05:06:00Z,29.5150,-94.5133,0.0,1.7,200.0,2.8,'11111222,11111222,11111222' 
TCOON,ioos:station:TCOON:518:1,2013-09-26T05:12:00Z,29.5150,-94.5133,0.0,1.6,204.0,2.6,'11111222,11111222,11111222' 
TCOON,ioos:station:TCOON:518:1,2013-09-26T05:18:00Z,29.5150,-94.5133,0.0,1.6,200.0,2.8,'11111222,11111222,11111222' 
TCOON,ioos:station:TCOON:518:1,2013-09-26T05:24:00Z,29.5150,-94.5133,0.0,1.9,203.0,3.2,'11111222,11111222,11111222' 
TCOON,ioos:station:TCOON:518:1,2013-09-26T05:30:00Z,29.5150,-94.5133,0.0,1.8,211.0,3.4,'11111222,11111222,11111222' 
TCOON,ioos:station:TCOON:518:1,2013-09-26T05:36:00Z,29.5150,-94.5133,0.0,1.7,209.0,2.5,'11111222,11111222,11111222' 
TCOON,ioos:station:TCOON:518:1,2013-09-26T05:42:00Z,29.5150,-94.5133,0.0,2.0,206.0,3.0,'11111222,11111222,11111222' 
TCOON,ioos:station:TCOON:518:1,2013-09-26T05:48:00Z,29.5150,-94.5133,0.0,1.6,204.0,2.8,'11111222,11111222,11111222' 
TCOON,ioos:station:TCOON:518:1,2013-09-26T05:54:00Z,29.5150,-94.5133,0.0,1.5,210.0,2.6,'1111122,1111122,1111122' 
TCOON,ioos:station:TCOON:518:1,2013-09-26T06:00:00Z,29.5150,-94.5133,0.0,1.8,204.0,2.8,'11111222,11111222,11111222' 
TCOON,ioos:station:TCOON:518:1,2013-09-26T06:06:00Z,29.5150,-94.5133,0.0,1.9,209.0,2.8,'11111222,11111222,11111222' 
TCOON,ioos:station:TCOON:518:1,2013-09-26T06:12:00Z,29.5150,-94.5133,0.0,1.8,208.0,2.6,'11111222,11111222,11111222' 
TCOON,ioos:station:TCOON:518:1,2013-09-26T06:18:00Z,29.5150,-94.5133,0.0,1.7,209.0,2.8,'11111222,11111222,11111222' 
TCOON,ioos:station:TCOON:518:1,2013-09-26T06:24:00Z,29.5150,-94.5133,0.0,1.7,211.0,2.9,'11111222,11111222,11111222' 
TCOON,ioos:station:TCOON:518:1,2013-09-26T06:30:00Z,29.5150,-94.5133,0.0,1.9,214.0,2.6,'11111222,11111222,11111222' 
TCOON,ioos:station:TCOON:518:1,2013-09-26T06:36:00Z,29.5150,-94.5133,0.0,1.9,217.0,3.3,'11111222,11111222,11111222' 
TCOON,ioos:station:TCOON:518:1,2013-09-26T06:42:00Z,29.5150,-94.5133,0.0,2.4,216.0,3.6,'11111222,11111222,11111222' 
TCOON,ioos:station:TCOON:518:1,2013-09-26T06:48:00Z,29.5150,-94.5133,0.0,2.6,220.0,4.1,'1111122,1111122,1111122' 
TCOON,ioos:station:TCOON:518:1,2013-09-26T06:54:00Z,29.5150,-94.5133,0.0,2.0,224.0,3.1,'11111222,11111222,11111222' 
TCOON,ioos:station:TCOON:518:1,2013-09-26T07:00:00Z,29.5150,-94.5133,0.0,2.9,223.0,3.8,'11111222,11111222,11111222' 
TCOON,ioos:station:TCOON:518:1,2013-09-26T07:06:00Z,29.5150,-94.5133,0.0,2.9,215.0,3.9,'11111222,11111222,11111222' 
TCOON,ioos:station:TCOON:518:1,2013-09-26T07:12:00Z,29.5150,-94.5133,0.0,2.4,221.0,3.4,'11111222,11111222,11111222' 
TCOON,ioos:station:TCOON:518:1,2013-09-26T07:18:00Z,29.5150,-94.5133,0.0,2.2,213.0,3.2,'11111222,11111222,11111222' 
TCOON,ioos:station:TCOON:518:1,2013-09-26T07:24:00Z,29.5150,-94.5133,0.0,2.6,220.0,3.6,'1111122,1111122,1111122' 
TCOON,ioos:station:TCOON:518:1,2013-09-26T07:30:00Z,29.5150,-94.5133,0.0,2.5,226.0,3.6,'11111222,11111222,11111222' 
TCOON,ioos:station:TCOON:518:1,2013-09-26T07:36:00Z,29.5150,-94.5133,0.0,2.4,230.0,3.4,'11111222,11111222,11111222' 
TCOON,ioos:station:TCOON:518:1,2013-09-26T07:42:00Z,29.5150,-94.5133,0.0,2.3,234.0,2.9,'11111222,11111222,11111222' 
TCOON,ioos:station:TCOON:518:1,2013-09-26T07:48:00Z,29.5150,-94.5133,0.0,2.1,240.0,2.6,'1111122,1111122,1111122' 
TCOON,ioos:station:TCOON:518:1,2013-09-26T07:54:00Z,29.5150,-94.5133,0.0,1.8,237.0,2.5,'11111222,11111222,11111222' 
TCOON,ioos:station:TCOON:518:1,2013-09-26T08:00:00Z,29.5150,-94.5133,0.0,1.9,241.0,2.4,'11111222,11111222,11111222' 
TCOON,ioos:station:TCOON:518:1,2013-09-26T08:06:00Z,29.5150,-94.5133,0.0,1.5,241.0,2.2,'11111222,11111222,11111222' 
TCOON,ioos:station:TCOON:518:1,2013-09-26T08:12:00Z,29.5150,-94.5133,0.0,1.8,243.0,2.4,'11111222,11111222,11111222' 
TCOON,ioos:station:TCOON:518:1,2013-09-26T08:18:00Z,29.5150,-94.5133,0.0,2.0,246.0,2.5,'11111222,11111222,11111222' 
TCOON,ioos:station:TCOON:518:1,2013-09-26T08:24:00Z,29.5150,-94.5133,0.0,2.0,250.0,2.7,'11111222,11111222,11111222' 
TCOON,ioos:station:TCOON:518:1,2013-09-26T08:30:00Z,29.5150,-94.5133,0.0,1.7,267.0,2.6,'11111222,11111222,11111222' 
TCOON,ioos:station:TCOON:518:1,2013-09-26T08:36:00Z,29.5150,-94.5133,0.0,1.5,270.0,2.6,'1111122,1111122,1111122' 
TCOON,ioos:station:TCOON:518:1,2013-09-26T08:42:00Z,29.5150,-94.5133,0.0,1.8,262.0,2.4,'11111222,11111222,11111222' 
TCOON,ioos:station:TCOON:518:1,2013-09-26T08:48:00Z,29.5150,-94.5133,0.0,1.6,258.0,2.2,'11111222,11111222,11111222' 
TCOON,ioos:station:TCOON:518:1,2013-09-26T08:54:00Z,29.5150,-94.5133,0.0,1.6,250.0,2.0,'11111222,11111222,11111222' 
TCOON,ioos:station:TCOON:518:1,2013-09-26T09:00:00Z,29.5150,-94.5133,0.0,1.8,256.0,2.1,'11111222,11111222,11111222' 
TCOON,ioos:station:TCOON:518:1,2013-09-26T09:06:00Z,29.5150,-94.5133,0.0,1.5,256.0,2.3,'11111222,11111222,11111222' 
TCOON,ioos:station:TCOON:518:1,2013-09-26T09:12:00Z,29.5150,-94.5133,0.0,1.6,257.0,2.3,'11111222,11111222,11111222' 
TCOON,ioos:station:TCOON:518:1,2013-09-26T09:18:00Z,29.5150,-94.5133,0.0,1.6,259.0,2.5,'11111222,11111222,11111222' 
TCOON,ioos:station:TCOON:518:1,2013-09-26T09:24:00Z,29.5150,-94.5133,0.0,1.5,250.0,2.6,'1111122,1111122,1111122' 
TCOON,ioos:station:TCOON:518:1,2013-09-26T09:30:00Z,29.5150,-94.5133,0.0,1.8,255.0,2.3,'11111222,11111222,11111222' 
TCOON,ioos:station:TCOON:518:1,2013-09-26T09:36:00Z,29.5150,-94.5133,0.0,2.1,259.0,2.7,'11111222,11111222,11111222' 
TCOON,ioos:station:TCOON:518:1,2013-09-26T09:42:00Z,29.5150,-94.5133,0.0,1.7,262.0,2.3,'11111222,11111222,11111222' 
TCOON,ioos:station:TCOON:518:1,2013-09-26T09:48:00Z,29.5150,-94.5133,0.0,1.5,250.0,2.1,'1111122,1111122,1111122' 
TCOON,ioos:station:TCOON:518:1,2013-09-26T09:54:00Z,29.5150,-94.5133,0.0,1.4,254.0,1.9,'11111222,11111222,11111222' 
TCOON,ioos:station:TCOON:518:1,2013-09-26T10:00:00Z,29.5150,-94.5133,0.0,1.7,247.0,2.0,'11111222,11111222,11111222' 
TCOON,ioos:station:TCOON:518:1,2013-09-26T10:06:00Z,29.5150,-94.5133,0.0,1.6,244.0,2.0,'11111222,11111222,11111222' 
TCOON,ioos:station:TCOON:518:1,2013-09-26T10:12:00Z,29.5150,-94.5133,0.0,1.6,252.0,2.2,'11111222,11111222,11111222' 
TCOON,ioos:station:TCOON:518:1,2013-09-26T10:18:00Z,29.5150,-94.5133,0.0,1.5,259.0,2.1,'11111222,11111222,11111222' 
TCOON,ioos:station:TCOON:518:1,2013-09-26T10:24:00Z,29.5150,-94.5133,0.0,1.1,268.0,1.8,'11111222,11111222,11111222' 
TCOON,ioos:station:TCOON:518:1,2013-09-26T10:30:00Z,29.5150,-94.5133,0.0,1.5,263.0,2.1,'11111222,11111222,11111222' 
TCOON,ioos:station:TCOON:518:1,2013-09-26T10:36:00Z,29.5150,-94.5133,0.0,1.4,261.0,2.0,'11111222,11111222,11111222' 
TCOON,ioos:station:TCOON:518:1,2013-09-26T10:42:00Z,29.5150,-94.5133,0.0,1.7,262.0,2.1,'11111222,11111222,11111222' 